UAE349 WSSS-OMDB

Flight info

Callsign UAE349
Flight time N/A
Altitude 40000
Route AROSO3A AROSO Y513 KALIL Y504 GUNIP N571 VUSET A454 PASOV B540 KUPMA/N0455F240 B540 MIVEK P574 IMPED
Aircraft A359/H-SDE2E3GHIJ3J4J5LM1ORWXY/LB1D1

Departure

Time N/A
Airport Singapore Changi Airport (WSSS)

Arrival

Time 2026-04-26 18:56
Airport Dubai International Airport (OMDB)
Time Latitude Longitude Altitude Speed Heading
2026-04-26 17:22 21.03706 66.17754 39826 ft 477 kts 295°
2026-04-26 17:22 21.06612 66.11363 39811 ft 477 kts 295°
2026-04-26 17:23 21.09511 66.04980 39811 ft 476 kts 295°
2026-04-26 17:23 21.12411 65.98594 39812 ft 476 kts 295°
2026-04-26 17:24 21.15383 65.92249 39812 ft 477 kts 297°
2026-04-26 17:24 21.18388 65.85928 39811 ft 476 kts 297°
2026-04-26 17:25 21.21380 65.79601 39811 ft 476 kts 297°
2026-04-26 17:25 21.24357 65.73275 39812 ft 476 kts 297°
2026-04-26 17:26 21.27332 65.66939 39822 ft 475 kts 297°
2026-04-26 17:26 21.30287 65.60641 39829 ft 475 kts 297°
2026-04-26 17:27 21.33251 65.54308 39812 ft 475 kts 297°
2026-04-26 17:27 21.36236 65.47923 39812 ft 475 kts 297°
2026-04-26 17:28 21.39173 65.41636 39811 ft 475 kts 297°
2026-04-26 17:28 21.42129 65.35299 39811 ft 475 kts 297°
2026-04-26 17:29 21.44606 65.29981 39812 ft 475 kts 297°
2026-04-26 17:29 21.48038 65.22612 39812 ft 475 kts 297°
2026-04-26 17:30 21.50990 65.16263 39813 ft 475 kts 297°
2026-04-26 17:30 21.53937 65.09915 39824 ft 475 kts 297°
2026-04-26 17:31 21.56881 65.03566 39811 ft 474 kts 297°
2026-04-26 17:31 21.59816 64.97232 39810 ft 474 kts 297°
2026-04-26 17:32 21.62748 64.90896 39812 ft 474 kts 297°
2026-04-26 17:32 21.65684 64.84541 39812 ft 474 kts 297°
2026-04-26 17:33 21.68614 64.78191 39812 ft 474 kts 297°
2026-04-26 17:34 21.72993 64.68685 39810 ft 473 kts 297°
2026-04-26 17:34 21.75913 64.62339 39812 ft 473 kts 297°
2026-04-26 17:35 21.78824 64.56005 39811 ft 473 kts 297°
2026-04-26 17:35 21.81731 64.49672 39812 ft 472 kts 298°
2026-04-26 17:36 21.84620 64.43370 39812 ft 472 kts 298°
2026-04-26 17:36 21.87536 64.37000 39811 ft 471 kts 298°
2026-04-26 17:37 21.90430 64.30673 39811 ft 471 kts 298°
2026-04-26 17:37 21.93320 64.24343 39811 ft 471 kts 298°
2026-04-26 17:38 21.97647 64.14852 39829 ft 471 kts 298°
2026-04-26 17:38 22.00533 64.08519 39812 ft 471 kts 298°
2026-04-26 17:39 22.03413 64.02184 39811 ft 471 kts 298°
2026-04-26 17:39 22.06267 63.95895 39812 ft 471 kts 298°
2026-04-26 17:40 22.08677 63.90585 39811 ft 470 kts 298°
2026-04-26 17:40 22.12014 63.83221 39830 ft 471 kts 298°
2026-04-26 17:41 22.14884 63.76874 39826 ft 470 kts 298°
2026-04-26 17:41 22.17744 63.70545 39829 ft 469 kts 298°
2026-04-26 17:42 22.20607 63.64202 39812 ft 469 kts 298°
2026-04-26 17:42 22.23458 63.57874 39825 ft 469 kts 298°
2026-04-26 17:43 22.26304 63.51548 39812 ft 468 kts 298°
2026-04-26 17:43 22.29151 63.45219 39816 ft 469 kts 298°
2026-04-26 17:44 22.31993 63.38890 39831 ft 468 kts 298°
2026-04-26 17:44 22.34827 63.32572 39826 ft 467 kts 298°
2026-04-26 17:45 22.37649 63.26270 39828 ft 467 kts 298°
2026-04-26 17:45 22.40470 63.19964 39818 ft 466 kts 298°
2026-04-26 17:46 22.43296 63.13634 39826 ft 465 kts 298°
2026-04-26 17:46 22.46020 63.07316 39829 ft 465 kts 295°
2026-04-26 17:47 22.47678 63.03030 39829 ft 465 kts 295°
2026-04-26 17:47 22.50964 62.94358 39812 ft 465 kts 295°
2026-04-26 17:48 22.53429 62.87973 39826 ft 464 kts 295°
2026-04-26 17:48 22.55936 62.81527 39823 ft 464 kts 295°
2026-04-26 17:49 22.58439 62.75095 39828 ft 463 kts 295°
2026-04-26 17:49 22.60936 62.68666 39811 ft 463 kts 295°
2026-04-26 17:50 22.63427 62.62246 39832 ft 463 kts 295°
2026-04-26 17:50 22.65915 62.55822 39833 ft 463 kts 295°
2026-04-26 17:51 22.68398 62.49401 39835 ft 462 kts 295°
2026-04-26 17:51 22.70874 62.42984 39830 ft 462 kts 295°
2026-04-26 17:52 22.73349 62.36569 39835 ft 461 kts 295°
2026-04-26 17:52 22.75820 62.30160 39835 ft 461 kts 295°
2026-04-26 17:53 22.78288 62.23740 39835 ft 461 kts 295°
2026-04-26 17:54 22.81981 62.14117 39834 ft 461 kts 295°
2026-04-26 17:54 22.84431 62.07718 39831 ft 461 kts 295°
2026-04-26 17:55 22.86875 62.01335 39832 ft 461 kts 295°
2026-04-26 17:55 22.89325 61.94925 39828 ft 460 kts 295°
2026-04-26 17:56 22.91764 61.88531 39843 ft 459 kts 295°
2026-04-26 17:57 22.96622 61.75768 39841 ft 458 kts 295°
2026-04-26 17:57 22.99055 61.69368 39836 ft 458 kts 295°
2026-04-26 17:58 23.03898 61.56586 39847 ft 457 kts 295°
2026-04-26 17:59 23.07518 61.47020 39840 ft 456 kts 295°
2026-04-26 17:59 23.09927 61.40641 39837 ft 456 kts 295°
2026-04-26 18:00 23.12330 61.34264 39847 ft 456 kts 295°
2026-04-26 18:00 23.14732 61.27886 39847 ft 456 kts 295°
2026-04-26 18:01 23.16723 61.22591 39844 ft 456 kts 295°
2026-04-26 18:01 23.19120 61.16209 39843 ft 456 kts 295°
2026-04-26 18:02 23.21106 61.10909 39842 ft 456 kts 295°
2026-04-26 18:02 23.23899 61.03449 39830 ft 456 kts 295°
2026-04-26 18:03 23.26286 60.97064 39831 ft 455 kts 295°
2026-04-26 18:03 23.28667 60.90689 39829 ft 455 kts 295°
2026-04-26 18:04 23.31046 60.84312 39829 ft 455 kts 295°
2026-04-26 18:05 23.34597 60.74770 39860 ft 454 kts 294°
2026-04-26 18:05 23.36964 60.68400 39861 ft 453 kts 294°
2026-04-26 18:06 23.39316 60.62055 39854 ft 451 kts 294°
2026-04-26 18:06 23.41625 60.55758 39849 ft 450 kts 294°
2026-04-26 18:07 23.43930 60.49436 39847 ft 450 kts 294°
2026-04-26 18:07 23.46242 60.43094 39849 ft 449 kts 294°
2026-04-26 18:08 23.48541 60.36789 39851 ft 449 kts 294°
2026-04-26 18:08 23.50847 60.30457 39841 ft 448 kts 294°
2026-04-26 18:09 23.53146 60.24143 39836 ft 448 kts 294°
2026-04-26 18:09 23.55441 60.17826 39845 ft 448 kts 294°
2026-04-26 18:10 23.57730 60.11513 39836 ft 448 kts 293°
2026-04-26 18:10 23.60017 60.05196 39845 ft 448 kts 293°
2026-04-26 18:11 23.62298 59.98886 39845 ft 447 kts 293°
2026-04-26 18:11 23.64575 59.92582 39833 ft 447 kts 293°
2026-04-26 18:12 23.66845 59.86285 39834 ft 446 kts 293°
2026-04-26 18:12 23.69116 59.79975 39678 ft 446 kts 293°
2026-04-26 18:12 23.70246 59.76834 39444 ft 446 kts 293°
2026-04-26 18:13 23.71379 59.73681 39205 ft 446 kts 293°
2026-04-26 18:13 23.72512 59.70526 38951 ft 446 kts 293°
2026-04-26 18:13 23.73642 59.67375 38700 ft 446 kts 293°
2026-04-26 18:13 23.74393 59.65284 38535 ft 447 kts 293°
2026-04-26 18:14 23.75909 59.61053 38199 ft 448 kts 293°
2026-04-26 18:14 23.77043 59.57887 37953 ft 448 kts 293°
2026-04-26 18:14 23.78174 59.54722 37842 ft 449 kts 293°
2026-04-26 18:15 23.80449 59.48361 37833 ft 450 kts 293°
2026-04-26 18:15 23.82723 59.41987 37832 ft 450 kts 293°
2026-04-26 18:16 23.84992 59.35613 37833 ft 450 kts 293°
2026-04-26 18:16 23.88392 59.26048 37830 ft 450 kts 293°
2026-04-26 18:17 23.90637 59.19720 37833 ft 449 kts 293°
2026-04-26 18:17 23.92911 59.13310 37830 ft 449 kts 293°
2026-04-26 18:18 23.95054 59.06890 37832 ft 450 kts 291°
2026-04-26 18:18 23.97067 59.00467 37831 ft 450 kts 291°
2026-04-26 18:19 23.99106 58.93993 37833 ft 450 kts 291°
2026-04-26 18:19 24.01163 58.87540 37832 ft 449 kts 291°
2026-04-26 18:20 24.03221 58.81106 37832 ft 448 kts 291°
2026-04-26 18:20 24.04940 58.75715 37832 ft 447 kts 290°
2026-04-26 18:21 24.07321 58.68246 37831 ft 448 kts 290°
2026-04-26 18:21 24.09364 58.61822 37834 ft 447 kts 290°
2026-04-26 18:22 24.11413 58.55382 37831 ft 447 kts 290°
2026-04-26 18:22 24.13452 58.48958 37832 ft 447 kts 290°
2026-04-26 18:23 24.15485 58.42521 37831 ft 447 kts 290°
2026-04-26 18:23 24.17520 58.36078 37834 ft 447 kts 290°
2026-04-26 18:24 24.19543 58.29657 37833 ft 446 kts 290°
2026-04-26 18:24 24.21570 58.23218 37833 ft 447 kts 290°
2026-04-26 18:25 24.23592 58.16789 37831 ft 447 kts 290°
2026-04-26 18:25 24.25614 58.10346 37831 ft 447 kts 290°
2026-04-26 18:26 24.27630 58.03911 37832 ft 447 kts 290°
2026-04-26 18:26 24.29645 57.97467 37841 ft 447 kts 290°
2026-04-26 18:27 24.31659 57.91020 37842 ft 447 kts 290°
2026-04-26 18:27 24.33667 57.84575 37843 ft 446 kts 290°
2026-04-26 18:28 24.35656 57.78184 37841 ft 446 kts 290°
2026-04-26 18:28 24.37657 57.71750 37842 ft 446 kts 290°
2026-04-26 18:29 24.39654 57.65316 37842 ft 446 kts 290°
2026-04-26 18:29 24.41645 57.58881 37841 ft 446 kts 290°
2026-04-26 18:30 24.43636 57.52438 37842 ft 445 kts 290°
2026-04-26 18:30 24.45579 57.46162 37841 ft 445 kts 290°
2026-04-26 18:31 24.47303 57.40565 37842 ft 445 kts 290°
2026-04-26 18:31 24.49280 57.34123 37831 ft 445 kts 290°
2026-04-26 18:32 24.51259 57.27677 37832 ft 445 kts 290°
2026-04-26 18:32 24.53232 57.21244 37811 ft 444 kts 289°
2026-04-26 18:33 24.54210 57.18051 37275 ft 440 kts 289°
2026-04-26 18:33 24.55189 57.14854 36346 ft 444 kts 289°
2026-04-26 18:33 24.56166 57.11659 35391 ft 448 kts 289°
2026-04-26 18:33 24.57160 57.08407 34408 ft 452 kts 289°
2026-04-26 18:34 24.58165 57.05115 33380 ft 457 kts 289°
2026-04-26 18:34 24.59178 57.01792 32305 ft 462 kts 289°
2026-04-26 18:34 24.60205 56.98421 31128 ft 468 kts 288°
2026-04-26 18:34 24.61244 56.95008 29855 ft 475 kts 288°
2026-04-26 18:35 24.62296 56.91546 28655 ft 481 kts 287°
2026-04-26 18:35 24.63355 56.88058 27693 ft 481 kts 287°
2026-04-26 18:35 24.64554 56.84658 27094 ft 474 kts 295°
2026-04-26 18:35 24.66107 56.81518 26878 ft 463 kts 297°
2026-04-26 18:36 24.67714 56.78470 26825 ft 461 kts 298°
2026-04-26 18:36 24.69355 56.75455 26295 ft 453 kts 299°
2026-04-26 18:36 24.70989 56.72497 25210 ft 458 kts 299°
2026-04-26 18:36 24.72663 56.69482 24174 ft 460 kts 299°
2026-04-26 18:37 24.74329 56.66482 23243 ft 459 kts 299°
2026-04-26 18:37 24.75988 56.63488 22365 ft 457 kts 299°
2026-04-26 18:37 24.77636 56.60510 21535 ft 453 kts 299°
2026-04-26 18:37 24.79262 56.57561 20722 ft 449 kts 300°
2026-04-26 18:38 24.80866 56.54648 19774 ft 437 kts 300°
2026-04-26 18:38 24.82419 56.51825 18277 ft 430 kts 300°
2026-04-26 18:38 24.83939 56.49058 17394 ft 411 kts 300°
2026-04-26 18:38 24.85378 56.46437 16776 ft 389 kts 300°
2026-04-26 18:39 24.86775 56.43883 16131 ft 389 kts 300°
2026-04-26 18:39 24.87886 56.41197 15465 ft 384 kts 287°
2026-04-26 18:39 24.88358 56.38330 14807 ft 379 kts 273°
2026-04-26 18:39 24.88425 56.35441 14158 ft 375 kts 269°
2026-04-26 18:40 24.88324 56.32589 13585 ft 370 kts 266°
2026-04-26 18:40 24.88149 56.29772 12960 ft 367 kts 265°
2026-04-26 18:40 24.88110 56.26983 12310 ft 364 kts 275°
2026-04-26 18:40 24.88681 56.24326 12084 ft 349 kts 291°
2026-04-26 18:41 24.89692 56.21974 11949 ft 334 kts 296°
2026-04-26 18:41 24.90772 56.19765 11815 ft 319 kts 297°
2026-04-26 18:41 24.91821 56.17675 11675 ft 305 kts 298°
2026-04-26 18:41 24.92819 56.15704 11548 ft 292 kts 298°
2026-04-26 18:42 24.93790 56.13800 11414 ft 279 kts 298°
2026-04-26 18:42 24.94724 56.11974 11278 ft 267 kts 298°
2026-04-26 18:42 24.95613 56.10235 11151 ft 256 kts 298°
2026-04-26 18:42 24.96481 56.08543 11016 ft 250 kts 298°
2026-04-26 18:43 24.97292 56.06857 10826 ft 249 kts 292°
2026-04-26 18:43 24.97896 56.05078 10582 ft 247 kts 288°
2026-04-26 18:43 24.98429 56.03281 10293 ft 246 kts 287°
2026-04-26 18:43 24.98953 56.01497 10017 ft 244 kts 288°
2026-04-26 18:44 24.99486 55.99699 9773 ft 253 kts 288°
2026-04-26 18:44 25.00045 55.97823 9703 ft 260 kts 288°
2026-04-26 18:44 25.00606 55.95934 9323 ft 260 kts 289°
2026-04-26 18:44 25.01171 55.94036 8859 ft 262 kts 289°
2026-04-26 18:45 25.01733 55.92145 8506 ft 259 kts 289°
2026-04-26 18:45 25.02292 55.90268 8191 ft 256 kts 289°
2026-04-26 18:45 25.02844 55.88407 7892 ft 255 kts 289°
2026-04-26 18:45 25.03395 55.86550 7593 ft 253 kts 289°
2026-04-26 18:46 25.03940 55.84716 7304 ft 251 kts 289°
2026-04-26 18:46 25.04483 55.82890 7009 ft 249 kts 289°
2026-04-26 18:46 25.05016 55.81097 6713 ft 245 kts 289°
2026-04-26 18:46 25.05544 55.79320 6422 ft 242 kts 289°
2026-04-26 18:47 25.06073 55.77552 6142 ft 243 kts 289°
2026-04-26 18:47 25.06599 55.75777 5853 ft 244 kts 289°
2026-04-26 18:47 25.07126 55.73999 5610 ft 243 kts 289°
2026-04-26 18:47 25.07637 55.72270 5464 ft 232 kts 289°
2026-04-26 18:48 25.08125 55.70616 5299 ft 222 kts 289°
2026-04-26 18:48 25.08591 55.69028 5159 ft 213 kts 289°
2026-04-26 18:48 25.09041 55.67510 5015 ft 204 kts 289°
2026-04-26 18:48 25.09475 55.66049 4843 ft 196 kts 289°
2026-04-26 18:49 25.09891 55.64652 4673 ft 189 kts 289°
2026-04-26 18:49 25.10443 55.63365 4492 ft 181 kts 299°
2026-04-26 18:49 25.11064 55.62201 4420 ft 172 kts 301°
2026-04-26 18:49 25.11688 55.61084 4318 ft 172 kts 301°
2026-04-26 18:50 25.12109 55.60340 4242 ft 172 kts 302°
2026-04-26 18:50 25.12741 55.59222 4144 ft 172 kts 301°
2026-04-26 18:50 25.13368 55.58077 3908 ft 178 kts 300°
2026-04-26 18:50 25.13997 55.56858 3628 ft 186 kts 299°
2026-04-26 18:51 25.14624 55.55638 3402 ft 177 kts 300°
2026-04-26 18:51 25.15225 55.54497 3146 ft 168 kts 300°
2026-04-26 18:51 25.15805 55.53401 2882 ft 162 kts 300°
2026-04-26 18:51 25.16379 55.52356 2616 ft 156 kts 301°
2026-04-26 18:52 25.16965 55.51382 2424 ft 150 kts 303°
2026-04-26 18:52 25.17548 55.50422 2232 ft 150 kts 302°
2026-04-26 18:52 25.18125 55.49466 2063 ft 148 kts 302°
2026-04-26 18:52 25.18675 55.48522 1892 ft 146 kts 300°
2026-04-26 18:53 25.19197 55.47570 1704 ft 144 kts 299°
2026-04-26 18:53 25.19694 55.46617 1516 ft 142 kts 298°
2026-04-26 18:53 25.20174 55.45696 1314 ft 134 kts 299°
2026-04-26 18:53 25.20656 55.44823 1153 ft 134 kts 300°
2026-04-26 18:54 25.21141 55.43954 961 ft 131 kts 300°
2026-04-26 18:54 25.21616 55.43101 755 ft 130 kts 300°
2026-04-26 18:54 25.22078 55.42242 576 ft 130 kts 300°
2026-04-26 18:54 25.22540 55.41389 406 ft 129 kts 301°
2026-04-26 18:55 25.23007 55.40539 242 ft 129 kts 301°
2026-04-26 18:55 25.23477 55.39690 88 ft 130 kts 301°
2026-04-26 18:55 25.23927 55.38870 30 ft 121 kts 301°
2026-04-26 18:55 25.24299 55.38209 28 ft 74 kts 302°
2026-04-26 18:56 25.24478 55.37887 28 ft 29 kts 301°
2026-04-26 18:56 25.24570 55.37717 28 ft 25 kts 297°
2026-04-26 18:56 25.24610 55.37529 28 ft 25 kts 274°
2026-04-26 18:56 25.24613 55.37402 28 ft 12 kts 271°
2026-04-26 18:57 25.24617 55.37304 28 ft 14 kts 277°
2026-04-26 18:57 25.24639 55.37235 28 ft 15 kts 298°
2026-04-26 18:57 25.24720 55.37088 28 ft 19 kts 302°
2026-04-26 18:57 25.24771 55.36981 28 ft 9 kts 271°
2026-04-26 18:58 25.24724 55.36927 28 ft 11 kts 210°
2026-04-26 18:58 25.24649 55.36941 28 ft 11 kts 165°
2026-04-26 18:58 25.24588 55.36956 28 ft 10 kts 168°
2026-04-26 18:58 25.24556 55.36963 28 ft 1 kts 168°
2026-04-26 18:59 25.24555 55.36964 28 ft 0 kts 168°